User: anonymous   Login
Location: NJAA Observatory
(40.6819°N, 74.8979°W)
Time: 19:52:38
(UTC-04:00)
Language:

Cosmos 1328 Rocket - Orbit

View from above orbital plane
View from above orbital plane
View from above satellite
View from above satellite

Ground track
Ground track

The orbit data is extracted from the following two-line orbital elements,

1 12988U 81117B   14296.46061226  .00000770  00000-0  89082-4 0  1903
2 12988 082.5247 260.8152 0019220 159.8373 345.2432 14.84149739776241
Epoch (UTC): 23 October 2014 11:03:16
Eccentricity: 0.0019220
inclination: 82.5247°
perigee height: 603 km
apogee height: 630 km
right ascension of ascending node: 260.8152°
argument of perigee: 159.8373°
revolutions per day: 14.84149739
mean anomaly at epoch: 345.2432°
orbit number at epoch: 77624

The dashed part of the orbit path shows where the satellite is in the earth's shadow,  

DLR